Погода в Нгерулмуде

Палау     7°30′01″N   134°37′26″E
темп.,
°C
ветер,
м/с
пор.,
м/с
влажн.,
%
обл.,
%
осадки,
мм/ч
давл.,
гПа
погр.,
м
3 марта, ср
ср300:00+27св698233 0.1 1011674
03:00+27св698251 0.5 1010765
06:00+27св8107824 0.2 1010958
09:00+28св7107444 0.2 10121019
12:00+29св797185 0.0 10111177
15:00+29св797288 0.0 10091194
18:00+27св797779 0.0 10101010
21:00+27св587981 0.0 1012836
4 марта, чт
чт400:00+26св5784100 1.3 1012605
03:00+26св4685100 1.9 1010566
06:00+27св578397 0.6 1011581
09:00+28всв687998 0.8 1012823
12:00+29св6874100 0.1 1011975
15:00+29св7977100 0.2 10091058
18:00+28всв8117790 0.1 10091051
21:00+28всв7117695 0.1 10111128
5 марта, пт
пт500:00+27всв6979100 0.1 10111046
03:00+27св588499 0.4 1010686
06:00+27всв7108261 1.1 1010803
09:00+28всв7107030 1.1 10121044
12:00+29всв686366 0.0 1011932
15:00+29св676853 0.0 1009945
18:00+27св587642 0.0 1010810
21:00+27всв578126 0.1 1011697
6 марта, сб
сб600:00+27св588222 0.1 1011660
03:00+27св578232 0.2 1009677
06:00+26всв57840 0.6 1010607
09:00+28св67769 0.9 10111019
12:00+29св677215 0.2 10101006
15:00+29св687211 1.4 10081063
18:00+28св577710 0.0 1009869
21:00+27св577818 0.0 1010677
7 марта, вс
вс700:00+27св4682100 0.1 1010595
03:00+26всв6983100 1.9 1008686
06:00+26всв578360 0.3 1010658
09:00+28всв577865 0.5 1011950
12:00+29всв5772100 0.0 1010999
15:00+28всв5778100 0.7 1008896
18:00+27св5782100 0.4 1009702
21:00+27св578594 1.5 1010472